SIA831 ZSPD-WSSS

Flight info

Callsign SIA831
Flight time 5h 35m
Altitude 35100
Route HSN82D HSN/K0896S1130 W13 TOGUG/K0898S1100 W13 BEGMO M503 TOLAK/N0486F361 M503 LAPUG/K0900S1100 R200 BEBEM/N0485F361 A470 DOTMI/N0485F360 DCT ENROM/N0485F380 DCT SULUX DCT EPKAL/K0898F360 L642 PTH/K0893F390 L642 ESPOB/N0482F380 Q801 ESBUM/N0481F390 Q802 ELALO ELALO1B
Aircraft B77W/H-SDE1E2E3FGHIJ2J3J4J5M1RWXY/LB1D1

Departure

Time 2026-05-07 03:19
Airport Shanghai Pudong International Airport (ZSPD)

Arrival

Time 2026-05-07 08:55
Airport Singapore Changi Airport (WSSS)
Time Latitude Longitude Altitude Speed Heading
2026-05-07 03:10 31.15418 121.80710 28 ft 0 kts 252°
2026-05-07 03:14 31.15420 121.80717 28 ft 4 kts 252°
2026-05-07 03:15 31.15428 121.80747 47 ft 4 kts 252°
2026-05-07 03:15 31.15435 121.80772 40 ft 4 kts 258°
2026-05-07 03:15 31.15434 121.80799 24 ft 4 kts 309°
2026-05-07 03:15 31.15413 121.80815 25 ft 3 kts 341°
2026-05-07 03:16 31.15390 121.80824 26 ft 2 kts 342°
2026-05-07 03:16 31.15388 121.80824 26 ft 0 kts 342°
2026-05-07 03:16 31.15398 121.80821 25 ft 5 kts 342°
2026-05-07 03:16 31.15470 121.80794 27 ft 16 kts 342°
2026-05-07 03:17 31.15595 121.80746 27 ft 19 kts 342°
2026-05-07 03:17 31.15682 121.80713 28 ft 6 kts 343°
2026-05-07 03:17 31.15756 121.80729 28 ft 14 kts 44°
2026-05-07 03:17 31.15788 121.80833 27 ft 14 kts 73°
2026-05-07 03:18 31.15817 121.80938 27 ft 14 kts 72°
2026-05-07 03:18 31.15846 121.81044 27 ft 14 kts 72°
2026-05-07 03:18 31.15868 121.81151 26 ft 14 kts 96°
2026-05-07 03:18 31.15797 121.81217 27 ft 15 kts 160°
2026-05-07 03:19 31.15556 121.81310 27 ft 72 kts 162°
2026-05-07 03:19 31.14830 121.81584 26 ft 145 kts 162°
2026-05-07 03:19 31.13699 121.82003 179 ft 184 kts 162°
2026-05-07 03:19 31.12522 121.82490 905 ft 182 kts 162°
2026-05-07 03:20 31.11329 121.83064 1637 ft 189 kts 158°
2026-05-07 03:20 31.10101 121.83734 2158 ft 207 kts 155°
2026-05-07 03:20 31.08767 121.84618 2374 ft 234 kts 155°
2026-05-07 03:20 31.07205 121.85374 2822 ft 249 kts 161°
2026-05-07 03:21 31.05534 121.86078 3393 ft 262 kts 163°
2026-05-07 03:21 31.03797 121.86794 4257 ft 268 kts 161°
2026-05-07 03:21 31.02043 121.87559 5135 ft 271 kts 160°
2026-05-07 03:21 31.00263 121.88350 6017 ft 276 kts 160°
2026-05-07 03:22 30.98455 121.89162 6892 ft 280 kts 160°
2026-05-07 03:22 30.96631 121.89989 7706 ft 284 kts 161°
2026-05-07 03:22 30.94772 121.90826 8522 ft 288 kts 161°
2026-05-07 03:22 30.92911 121.91661 9371 ft 291 kts 162°
2026-05-07 03:23 30.91014 121.92517 10176 ft 295 kts 162°
2026-05-07 03:23 30.89047 121.93402 10581 ft 314 kts 162°
2026-05-07 03:23 30.86913 121.94359 10770 ft 342 kts 162°
2026-05-07 03:23 30.84612 121.95390 10969 ft 367 kts 162°
2026-05-07 03:24 30.82239 121.96458 11462 ft 381 kts 162°
2026-05-07 03:24 30.79736 121.97589 12185 ft 390 kts 162°
2026-05-07 03:24 30.77195 121.98740 13078 ft 394 kts 162°
2026-05-07 03:24 30.74623 121.99904 13953 ft 399 kts 162°
2026-05-07 03:25 30.72020 122.01081 14727 ft 403 kts 162°
2026-05-07 03:25 30.69389 122.02268 15511 ft 408 kts 162°
2026-05-07 03:25 30.66727 122.03467 16301 ft 412 kts 163°
2026-05-07 03:25 30.64035 122.04679 17074 ft 417 kts 163°
2026-05-07 03:26 30.61313 122.05903 17836 ft 422 kts 163°
2026-05-07 03:26 30.58560 122.07139 18544 ft 426 kts 163°
2026-05-07 03:26 30.55812 122.08374 19147 ft 432 kts 163°
2026-05-07 03:26 30.52987 122.09641 19775 ft 436 kts 163°
2026-05-07 03:27 30.50141 122.10917 20401 ft 441 kts 163°
2026-05-07 03:27 30.47257 122.12209 21006 ft 447 kts 163°
2026-05-07 03:27 30.44337 122.13517 21601 ft 452 kts 163°
2026-05-07 03:27 30.41384 122.14838 22190 ft 457 kts 163°
2026-05-07 03:28 30.38407 122.16170 22767 ft 462 kts 163°
2026-05-07 03:28 30.35392 122.17518 23316 ft 467 kts 163°
2026-05-07 03:28 30.32340 122.18882 23808 ft 472 kts 163°
2026-05-07 03:28 30.29306 122.20238 24304 ft 474 kts 164°
2026-05-07 03:29 30.26221 122.21617 24805 ft 477 kts 164°
2026-05-07 03:29 30.23116 122.23002 25324 ft 480 kts 164°
2026-05-07 03:29 30.19991 122.24394 25811 ft 483 kts 164°
2026-05-07 03:29 30.16847 122.25794 26284 ft 486 kts 164°
2026-05-07 03:30 30.13682 122.27203 26758 ft 489 kts 164°
2026-05-07 03:30 30.10496 122.28620 27221 ft 492 kts 164°
2026-05-07 03:30 30.07294 122.30043 27683 ft 494 kts 164°
2026-05-07 03:30 30.04077 122.31473 28119 ft 497 kts 164°
2026-05-07 03:31 30.00839 122.32911 28512 ft 500 kts 164°
2026-05-07 03:31 29.97572 122.34360 28893 ft 503 kts 164°
2026-05-07 03:31 29.94284 122.35787 29285 ft 504 kts 166°
2026-05-07 03:31 29.90928 122.36938 29680 ft 501 kts 172°
2026-05-07 03:32 29.87524 122.37746 30135 ft 499 kts 174°
2026-05-07 03:32 29.84115 122.38505 30573 ft 498 kts 174°
2026-05-07 03:32 29.80717 122.39259 31023 ft 497 kts 174°
2026-05-07 03:32 29.77322 122.40022 31449 ft 497 kts 174°
2026-05-07 03:33 29.73923 122.40798 31849 ft 497 kts 174°
2026-05-07 03:33 29.70529 122.41583 32251 ft 497 kts 174°
2026-05-07 03:33 29.67175 122.42363 32646 ft 497 kts 174°
2026-05-07 03:33 29.63786 122.43154 33043 ft 497 kts 174°
2026-05-07 03:34 29.60396 122.43945 33451 ft 497 kts 174°
2026-05-07 03:34 29.57013 122.44733 33839 ft 497 kts 174°
2026-05-07 03:34 29.53623 122.45521 34168 ft 497 kts 174°
2026-05-07 03:34 29.50227 122.46308 34444 ft 498 kts 174°
2026-05-07 03:35 29.46824 122.47096 34710 ft 499 kts 175°
2026-05-07 03:35 29.43413 122.47887 34986 ft 500 kts 175°
2026-05-07 03:35 29.39998 122.48677 35266 ft 501 kts 175°
2026-05-07 03:35 29.36574 122.49470 35535 ft 502 kts 175°
2026-05-07 03:36 29.33152 122.50262 35797 ft 502 kts 175°
2026-05-07 03:36 29.29712 122.51056 35906 ft 507 kts 175°
2026-05-07 03:36 29.26243 122.51856 35951 ft 508 kts 175°
2026-05-07 03:36 29.22775 122.52331 35960 ft 495 kts 187°
2026-05-07 03:37 29.19399 122.51996 35975 ft 481 kts 198°
2026-05-07 03:37 29.13257 122.49506 35984 ft 460 kts 215°
2026-05-07 03:38 29.07579 122.46048 35978 ft 463 kts 215°
2026-05-07 03:38 29.01896 122.42635 35976 ft 466 kts 214°
2026-05-07 03:39 28.96124 122.39223 35965 ft 468 kts 214°
2026-05-07 03:39 28.90318 122.35814 35971 ft 469 kts 214°
2026-05-07 03:40 28.84506 122.32408 35966 ft 470 kts 214°
2026-05-07 03:40 28.78692 122.29003 35975 ft 470 kts 214°
2026-05-07 03:41 28.72878 122.25601 35977 ft 469 kts 214°
2026-05-07 03:41 28.67065 122.22203 35974 ft 469 kts 214°
2026-05-07 03:42 28.61292 122.18832 35974 ft 469 kts 214°
2026-05-07 03:42 28.56455 122.16012 35972 ft 469 kts 214°
2026-05-07 03:43 28.50646 122.12628 35978 ft 469 kts 214°
2026-05-07 03:43 28.44832 122.09245 35980 ft 469 kts 214°
2026-05-07 03:44 28.39015 122.05865 35976 ft 470 kts 214°
2026-05-07 03:44 28.33188 122.02483 35979 ft 470 kts 214°
2026-05-07 03:45 28.27353 121.99102 35981 ft 471 kts 214°
2026-05-07 03:45 28.21509 121.95718 35980 ft 471 kts 213°
2026-05-07 03:46 28.15657 121.92334 35979 ft 472 kts 213°
2026-05-07 03:46 28.09839 121.88975 35976 ft 473 kts 213°
2026-05-07 03:47 28.03953 121.85578 35982 ft 474 kts 213°
2026-05-07 03:47 27.98082 121.82170 35981 ft 473 kts 214°
2026-05-07 03:48 27.92307 121.78600 35983 ft 473 kts 215°
2026-05-07 03:48 27.86547 121.74993 35978 ft 474 kts 215°
2026-05-07 03:49 27.80804 121.71431 35980 ft 474 kts 215°
2026-05-07 03:49 27.75002 121.67854 35985 ft 475 kts 215°
2026-05-07 03:50 27.69190 121.64276 35987 ft 475 kts 215°
2026-05-07 03:50 27.63379 121.60700 35983 ft 476 kts 215°
2026-05-07 03:51 27.57557 121.57123 35981 ft 476 kts 214°
2026-05-07 03:51 27.51724 121.53571 35982 ft 477 kts 214°
2026-05-07 03:52 27.45879 121.50026 35983 ft 477 kts 214°
2026-05-07 03:52 27.40067 121.46499 35980 ft 477 kts 214°
2026-05-07 03:53 27.34213 121.42948 35982 ft 478 kts 214°
2026-05-07 03:53 27.28353 121.39398 35983 ft 478 kts 214°
2026-05-07 03:54 27.22491 121.35851 35983 ft 478 kts 214°
2026-05-07 03:54 27.16624 121.32290 35984 ft 479 kts 214°
2026-05-07 03:55 27.10762 121.28728 35979 ft 479 kts 214°
2026-05-07 03:55 27.04894 121.25167 35983 ft 479 kts 214°
2026-05-07 03:56 26.99065 121.21636 35981 ft 479 kts 214°
2026-05-07 03:56 26.93191 121.18082 35979 ft 480 kts 214°
2026-05-07 03:57 26.87307 121.14526 35982 ft 480 kts 214°
2026-05-07 03:57 26.81422 121.10973 35982 ft 480 kts 214°
2026-05-07 03:58 26.75533 121.07423 35983 ft 480 kts 214°
2026-05-07 03:58 26.69645 121.03876 35982 ft 481 kts 214°
2026-05-07 03:59 26.63755 121.00331 35976 ft 481 kts 214°
2026-05-07 03:59 26.57903 120.96812 35980 ft 481 kts 214°
2026-05-07 04:00 26.52008 120.93271 35982 ft 481 kts 214°
2026-05-07 04:00 26.46112 120.89733 35981 ft 481 kts 214°
2026-05-07 04:01 26.40219 120.86201 35982 ft 481 kts 214°
2026-05-07 04:01 26.34318 120.82669 35977 ft 481 kts 214°
2026-05-07 04:02 26.28416 120.79140 35981 ft 481 kts 214°
2026-05-07 04:02 26.22519 120.75619 35982 ft 481 kts 214°
2026-05-07 04:03 26.16615 120.72097 35973 ft 481 kts 213°
2026-05-07 04:03 26.10704 120.68575 35985 ft 482 kts 213°
2026-05-07 04:04 26.04811 120.65067 35987 ft 483 kts 213°
2026-05-07 04:04 25.98869 120.61535 35983 ft 484 kts 213°
2026-05-07 04:05 25.92924 120.58005 35983 ft 484 kts 213°
2026-05-07 04:05 25.86979 120.54480 35981 ft 484 kts 213°
2026-05-07 04:06 25.81038 120.50960 35988 ft 484 kts 213°
2026-05-07 04:06 25.75102 120.47447 35985 ft 483 kts 213°
2026-05-07 04:07 25.69199 120.43956 35986 ft 483 kts 213°
2026-05-07 04:07 25.63283 120.40432 35980 ft 481 kts 215°
2026-05-07 04:08 25.57826 120.36240 35986 ft 474 kts 222°
2026-05-07 04:08 25.52613 120.31835 35980 ft 474 kts 222°
2026-05-07 04:09 25.47350 120.27416 35985 ft 475 kts 221°
2026-05-07 04:09 25.42064 120.23022 35981 ft 475 kts 221°
2026-05-07 04:10 25.36753 120.18624 35984 ft 476 kts 221°
2026-05-07 04:10 25.31449 120.14235 35980 ft 476 kts 221°
2026-05-07 04:11 25.26142 120.09848 35981 ft 477 kts 221°
2026-05-07 04:11 25.20862 120.05487 35978 ft 477 kts 221°
2026-05-07 04:12 25.15543 120.01098 35982 ft 477 kts 221°
2026-05-07 04:12 25.10221 119.96712 35977 ft 478 kts 221°
2026-05-07 04:13 25.04890 119.92323 35980 ft 478 kts 221°
2026-05-07 04:13 24.99718 119.87760 35982 ft 474 kts 227°
2026-05-07 04:14 24.95315 119.82423 35988 ft 470 kts 233°
2026-05-07 04:14 24.91093 119.76924 35976 ft 470 kts 233°
2026-05-07 04:15 24.86847 119.71434 35979 ft 471 kts 233°
2026-05-07 04:15 24.82577 119.65953 35978 ft 471 kts 233°
2026-05-07 04:16 24.78301 119.60484 35979 ft 471 kts 233°
2026-05-07 04:16 24.74025 119.55023 35976 ft 471 kts 233°
2026-05-07 04:17 24.69744 119.49560 35976 ft 471 kts 233°
2026-05-07 04:17 24.65492 119.44139 35977 ft 471 kts 232°
2026-05-07 04:18 24.61208 119.38685 35978 ft 471 kts 232°
2026-05-07 04:18 24.56918 119.33227 35975 ft 471 kts 232°
2026-05-07 04:19 24.52631 119.27781 35976 ft 471 kts 232°
2026-05-07 04:19 24.48338 119.22333 35973 ft 471 kts 232°
2026-05-07 04:20 24.44049 119.16897 35978 ft 471 kts 232°
2026-05-07 04:20 24.39784 119.11496 35974 ft 471 kts 232°
2026-05-07 04:21 24.33339 119.03347 35974 ft 471 kts 232°
2026-05-07 04:21 24.29038 118.97917 35969 ft 471 kts 232°
2026-05-07 04:22 24.24742 118.92498 35990 ft 471 kts 232°
2026-05-07 04:22 24.20463 118.87108 35989 ft 471 kts 232°
2026-05-07 04:23 24.16161 118.81694 35969 ft 471 kts 232°
2026-05-07 04:23 24.11851 118.76276 35966 ft 471 kts 232°
2026-05-07 04:24 24.07549 118.70875 35963 ft 471 kts 232°
2026-05-07 04:24 24.03245 118.65477 35979 ft 471 kts 232°
2026-05-07 04:25 23.98965 118.60114 35985 ft 470 kts 232°
2026-05-07 04:25 23.94655 118.54719 35967 ft 470 kts 232°
2026-05-07 04:26 23.90347 118.49332 35970 ft 470 kts 232°
2026-05-07 04:26 23.86039 118.43953 35979 ft 470 kts 232°
2026-05-07 04:27 23.81697 118.38591 35962 ft 470 kts 232°
2026-05-07 04:27 23.77373 118.33283 35975 ft 470 kts 232°
2026-05-07 04:28 23.73026 118.27947 35978 ft 470 kts 232°
2026-05-07 04:28 23.68680 118.22611 35975 ft 470 kts 232°
2026-05-07 04:29 23.65059 118.18168 35979 ft 470 kts 232°
2026-05-07 04:29 23.59970 118.11930 35973 ft 470 kts 232°
2026-05-07 04:30 23.56351 118.07498 35974 ft 471 kts 232°
2026-05-07 04:30 23.51292 118.01311 35969 ft 471 kts 232°
2026-05-07 04:31 23.47638 117.96847 35975 ft 471 kts 232°
2026-05-07 04:31 23.43275 117.91522 35975 ft 471 kts 232°
2026-05-07 04:32 23.38938 117.86235 35976 ft 471 kts 232°
2026-05-07 04:32 23.34570 117.80914 35971 ft 471 kts 232°
2026-05-07 04:33 23.30205 117.75604 35977 ft 471 kts 232°
2026-05-07 04:33 23.25834 117.70292 35965 ft 471 kts 232°
2026-05-07 04:34 23.21462 117.64984 35973 ft 471 kts 232°
2026-05-07 04:34 23.17089 117.59680 35973 ft 471 kts 232°
2026-05-07 04:35 23.12711 117.54374 35974 ft 471 kts 232°
2026-05-07 04:35 23.08364 117.49107 35974 ft 471 kts 233°
2026-05-07 04:36 23.04051 117.43752 35971 ft 471 kts 233°
2026-05-07 04:36 23.00516 117.37924 35969 ft 458 kts 252°
2026-05-07 04:37 22.99068 117.31275 35967 ft 450 kts 269°
2026-05-07 04:37 22.98837 117.24519 35967 ft 452 kts 270°
2026-05-07 04:38 22.98623 117.17681 35977 ft 454 kts 270°
2026-05-07 04:38 22.98359 117.10810 35970 ft 456 kts 269°
2026-05-07 04:39 22.98066 117.03909 35970 ft 457 kts 269°
2026-05-07 04:39 22.97764 116.97012 35967 ft 457 kts 269°
2026-05-07 04:40 22.97462 116.90115 35968 ft 457 kts 269°
2026-05-07 04:40 22.97158 116.83231 35968 ft 456 kts 269°
2026-05-07 04:41 22.96852 116.76358 35968 ft 455 kts 269°
2026-05-07 04:41 22.96546 116.69543 35967 ft 455 kts 269°
2026-05-07 04:42 22.96235 116.62694 35968 ft 454 kts 269°
2026-05-07 04:42 22.95921 116.55854 35971 ft 454 kts 269°
2026-05-07 04:43 22.95605 116.49012 35971 ft 454 kts 269°
2026-05-07 04:43 22.95284 116.42173 35966 ft 452 kts 268°
2026-05-07 04:44 22.94699 116.38816 35963 ft 457 kts 252°
2026-05-07 04:44 22.93305 116.35702 35975 ft 462 kts 241°
2026-05-07 04:44 22.91335 116.32925 35968 ft 470 kts 228°
2026-05-07 04:44 22.88794 116.30670 35987 ft 473 kts 220°
2026-05-07 04:45 22.83454 116.26442 35973 ft 476 kts 220°
2026-05-07 04:45 22.78188 116.22125 35972 ft 478 kts 221°
2026-05-07 04:46 22.72582 116.18217 35966 ft 487 kts 205°
2026-05-07 04:46 22.65888 116.16755 35959 ft 500 kts 184°
2026-05-07 04:47 22.58915 116.16996 35966 ft 502 kts 181°
2026-05-07 04:47 22.51924 116.17314 35967 ft 503 kts 181°
2026-05-07 04:48 22.44929 116.17557 35963 ft 503 kts 182°
2026-05-07 04:48 22.37936 116.17753 35960 ft 502 kts 182°
2026-05-07 04:49 22.31000 116.17937 35960 ft 501 kts 182°
2026-05-07 04:49 22.24042 116.18126 35957 ft 500 kts 182°
2026-05-07 04:50 22.17092 116.18318 35956 ft 498 kts 182°
2026-05-07 04:50 22.10156 116.18510 35957 ft 497 kts 182°
2026-05-07 04:51 22.03282 116.18699 35955 ft 497 kts 182°
2026-05-07 04:51 21.96364 116.18890 35954 ft 496 kts 182°
2026-05-07 04:52 21.89460 116.19079 35957 ft 496 kts 182°
2026-05-07 04:52 21.82564 116.19269 35954 ft 496 kts 182°
2026-05-07 04:53 21.75665 116.19458 35950 ft 496 kts 182°
2026-05-07 04:53 21.68807 116.19646 35953 ft 496 kts 182°
2026-05-07 04:54 21.61912 116.19835 35949 ft 495 kts 182°
2026-05-07 04:54 21.55196 116.18836 35955 ft 484 kts 201°
2026-05-07 04:55 21.49186 116.15775 35956 ft 476 kts 215°
2026-05-07 04:55 21.43566 116.11985 35948 ft 477 kts 216°
2026-05-07 04:56 21.37930 116.08191 35945 ft 479 kts 215°
2026-05-07 04:56 21.32250 116.04431 35947 ft 480 kts 215°
2026-05-07 04:57 21.26595 116.00718 35945 ft 480 kts 215°
2026-05-07 04:57 21.20894 115.96982 35939 ft 480 kts 215°
2026-05-07 04:58 21.15198 115.93251 35943 ft 480 kts 215°
2026-05-07 04:58 21.09504 115.89522 35941 ft 479 kts 215°
2026-05-07 04:59 21.03812 115.85798 35939 ft 478 kts 214°
2026-05-07 04:59 20.98169 115.82108 35937 ft 478 kts 214°
2026-05-07 05:00 20.92496 115.78403 35941 ft 477 kts 214°
2026-05-07 05:00 20.86829 115.74705 35944 ft 477 kts 214°
2026-05-07 05:01 20.81157 115.71007 35944 ft 477 kts 214°
2026-05-07 05:01 20.75488 115.67314 35932 ft 477 kts 214°
2026-05-07 05:02 20.69858 115.63649 35924 ft 477 kts 214°
2026-05-07 05:02 20.64188 115.59962 35936 ft 477 kts 214°
2026-05-07 05:03 20.58523 115.56281 35934 ft 477 kts 214°
2026-05-07 05:03 20.52846 115.52596 35933 ft 477 kts 214°
2026-05-07 05:04 20.47165 115.48911 35933 ft 478 kts 214°
2026-05-07 05:04 20.41481 115.45227 35930 ft 478 kts 214°
2026-05-07 05:05 20.35830 115.41484 35928 ft 477 kts 218°
2026-05-07 05:05 20.30771 115.36982 35935 ft 473 kts 226°
2026-05-07 05:06 20.26008 115.32128 35933 ft 473 kts 226°
2026-05-07 05:06 20.21273 115.27313 35927 ft 474 kts 226°
2026-05-07 05:07 20.16482 115.22482 35926 ft 474 kts 226°
2026-05-07 05:07 20.11683 115.17665 35927 ft 474 kts 226°
2026-05-07 05:08 20.06868 115.12839 35924 ft 475 kts 226°
2026-05-07 05:08 20.02060 115.08023 35926 ft 475 kts 226°
2026-05-07 05:09 19.97278 115.03237 35924 ft 475 kts 226°
2026-05-07 05:09 19.92461 114.98419 35922 ft 475 kts 226°
2026-05-07 05:10 19.87636 114.93598 35923 ft 476 kts 226°
2026-05-07 05:10 19.82804 114.88774 35923 ft 476 kts 226°
2026-05-07 05:11 19.77977 114.83959 35925 ft 476 kts 226°
2026-05-07 05:11 19.73146 114.79144 35923 ft 476 kts 226°
2026-05-07 05:12 19.68343 114.74361 35921 ft 477 kts 226°
2026-05-07 05:12 19.63503 114.69546 35927 ft 477 kts 226°
2026-05-07 05:13 19.58665 114.64736 35917 ft 477 kts 226°
2026-05-07 05:13 19.53807 114.59911 35920 ft 477 kts 225°
2026-05-07 05:14 19.48953 114.55095 35924 ft 477 kts 225°
2026-05-07 05:14 19.44130 114.50313 35921 ft 478 kts 225°
2026-05-07 05:15 19.39281 114.45510 35920 ft 478 kts 225°
2026-05-07 05:15 19.34427 114.40705 35920 ft 478 kts 225°
2026-05-07 05:16 19.29557 114.35889 35917 ft 478 kts 225°
2026-05-07 05:16 19.24693 114.31083 35919 ft 478 kts 225°
2026-05-07 05:17 19.19828 114.26280 35916 ft 479 kts 225°
2026-05-07 05:17 19.14961 114.21479 35917 ft 479 kts 225°
2026-05-07 05:18 19.10116 114.16704 35919 ft 479 kts 225°
2026-05-07 05:18 19.05228 114.11890 35918 ft 479 kts 225°
2026-05-07 05:19 19.00351 114.07092 35917 ft 479 kts 225°
2026-05-07 05:19 18.96292 114.03101 35914 ft 479 kts 225°
2026-05-07 05:20 18.90622 113.97531 35913 ft 479 kts 225°
2026-05-07 05:20 18.86536 113.93521 35911 ft 479 kts 225°
2026-05-07 05:21 18.79204 113.86331 35911 ft 479 kts 225°
2026-05-07 05:22 18.74313 113.81540 35910 ft 479 kts 225°
2026-05-07 05:22 18.69427 113.76758 35912 ft 479 kts 225°
2026-05-07 05:23 18.64582 113.72021 35911 ft 479 kts 225°
2026-05-07 05:23 18.59685 113.67235 35912 ft 479 kts 225°
2026-05-07 05:24 18.54796 113.62462 35909 ft 479 kts 225°
2026-05-07 05:24 18.49903 113.57689 35910 ft 480 kts 225°
2026-05-07 05:25 18.44991 113.52901 35908 ft 480 kts 225°
2026-05-07 05:25 18.40086 113.48124 35910 ft 480 kts 225°
2026-05-07 05:26 18.35177 113.43346 35905 ft 481 kts 225°
2026-05-07 05:26 18.30296 113.38600 35907 ft 481 kts 225°
2026-05-07 05:27 18.25375 113.33818 35905 ft 481 kts 225°
2026-05-07 05:27 18.20449 113.29036 35906 ft 481 kts 225°
2026-05-07 05:28 18.15527 113.24261 35902 ft 482 kts 225°
2026-05-07 05:28 18.10596 113.19482 35905 ft 482 kts 225°
2026-05-07 05:29 18.05666 113.14707 35904 ft 482 kts 225°
2026-05-07 05:29 18.00730 113.09930 35906 ft 482 kts 225°
2026-05-07 05:30 17.95827 113.05189 35902 ft 482 kts 225°
2026-05-07 05:30 17.90887 113.00413 35901 ft 482 kts 225°
2026-05-07 05:31 17.85933 112.95652 35902 ft 483 kts 223°
2026-05-07 05:31 17.80622 112.91323 35911 ft 484 kts 219°
2026-05-07 05:32 17.75207 112.87124 35902 ft 484 kts 219°
2026-05-07 05:32 17.69796 112.82908 35902 ft 484 kts 219°
2026-05-07 05:33 17.64397 112.78673 35905 ft 485 kts 219°
2026-05-07 05:33 17.59028 112.74455 35902 ft 485 kts 219°
2026-05-07 05:34 17.53628 112.70215 35902 ft 485 kts 219°
2026-05-07 05:34 17.48220 112.65974 35902 ft 485 kts 219°
2026-05-07 05:35 17.42800 112.61728 35900 ft 485 kts 219°
2026-05-07 05:35 17.37388 112.57491 35899 ft 485 kts 219°
2026-05-07 05:36 17.32010 112.53283 35900 ft 486 kts 219°
2026-05-07 05:36 17.26592 112.49047 35899 ft 486 kts 219°
2026-05-07 05:37 17.21175 112.44815 35899 ft 486 kts 219°
2026-05-07 05:37 17.15752 112.40582 35899 ft 486 kts 219°
2026-05-07 05:38 17.10317 112.36342 35888 ft 489 kts 218°
2026-05-07 05:38 17.04820 112.32055 35901 ft 495 kts 218°
2026-05-07 05:39 16.99332 112.27784 35899 ft 496 kts 218°
2026-05-07 05:39 16.93760 112.23535 35898 ft 496 kts 218°
2026-05-07 05:40 16.88174 112.19324 35896 ft 495 kts 218°
2026-05-07 05:40 16.82600 112.15116 35896 ft 494 kts 218°
2026-05-07 05:41 16.77035 112.10907 35896 ft 493 kts 218°
2026-05-07 05:41 16.71488 112.06711 35895 ft 492 kts 218°
2026-05-07 05:42 16.65947 112.02522 35892 ft 491 kts 218°
2026-05-07 05:42 16.60408 111.98338 35895 ft 491 kts 218°
2026-05-07 05:43 16.54867 111.94156 35895 ft 491 kts 217°
2026-05-07 05:43 16.49332 111.89982 35893 ft 491 kts 217°
2026-05-07 05:44 16.43794 111.85808 35890 ft 492 kts 217°
2026-05-07 05:44 16.38249 111.81633 35889 ft 492 kts 217°
2026-05-07 05:45 16.32701 111.77458 35888 ft 492 kts 217°
2026-05-07 05:45 16.27176 111.73303 35887 ft 492 kts 217°
2026-05-07 05:46 16.21617 111.69126 35887 ft 492 kts 217°
2026-05-07 05:46 16.16065 111.64957 35887 ft 492 kts 217°
2026-05-07 05:47 16.10510 111.60788 35886 ft 492 kts 217°
2026-05-07 05:47 16.04961 111.56627 35893 ft 492 kts 217°
2026-05-07 05:48 15.99411 111.52468 35890 ft 491 kts 217°
2026-05-07 05:48 15.93863 111.48313 35889 ft 491 kts 217°
2026-05-07 05:49 15.88353 111.44190 35889 ft 491 kts 217°
2026-05-07 05:49 15.82805 111.40042 35887 ft 490 kts 217°
2026-05-07 05:50 15.77260 111.35898 35879 ft 490 kts 217°
2026-05-07 05:50 15.71754 111.31786 35883 ft 490 kts 217°
2026-05-07 05:51 15.66221 111.27657 35897 ft 490 kts 217°
2026-05-07 05:51 15.60685 111.23528 35893 ft 490 kts 217°
2026-05-07 05:52 15.55153 111.19405 35882 ft 490 kts 217°
2026-05-07 05:52 15.49618 111.15283 35878 ft 490 kts 217°
2026-05-07 05:53 15.44085 111.11165 35876 ft 490 kts 217°
2026-05-07 05:53 15.38543 111.07041 35891 ft 490 kts 217°
2026-05-07 05:54 15.33012 111.02911 35887 ft 490 kts 218°
2026-05-07 05:54 15.27514 110.98728 35888 ft 490 kts 218°
2026-05-07 05:55 15.22032 110.94545 35883 ft 490 kts 218°
2026-05-07 05:55 15.16539 110.90365 35873 ft 490 kts 218°
2026-05-07 05:56 15.11086 110.86225 35882 ft 490 kts 218°
2026-05-07 05:56 15.05588 110.82056 35885 ft 489 kts 218°
2026-05-07 05:57 15.00092 110.77890 35884 ft 489 kts 218°
2026-05-07 05:57 14.94599 110.73729 35883 ft 489 kts 218°
2026-05-07 05:58 14.89106 110.69571 35870 ft 489 kts 218°
2026-05-07 05:58 14.83616 110.65417 35881 ft 489 kts 218°
2026-05-07 05:59 14.78128 110.61268 35876 ft 489 kts 218°
2026-05-07 05:59 14.72643 110.57123 35875 ft 488 kts 218°
2026-05-07 06:00 14.67193 110.53008 35876 ft 488 kts 218°
2026-05-07 06:00 14.61708 110.48868 35859 ft 488 kts 218°
2026-05-07 06:01 14.56228 110.44735 35874 ft 487 kts 218°
2026-05-07 06:01 14.50753 110.40609 35872 ft 487 kts 218°
2026-05-07 06:02 14.45280 110.36486 35872 ft 487 kts 218°
2026-05-07 06:02 14.39803 110.32364 35870 ft 487 kts 218°
2026-05-07 06:03 14.34335 110.28250 35868 ft 486 kts 218°
2026-05-07 06:03 14.28896 110.24160 35872 ft 486 kts 218°
2026-05-07 06:04 14.23435 110.20057 35871 ft 486 kts 217°
2026-05-07 06:04 14.17972 110.15955 35865 ft 486 kts 217°
2026-05-07 06:05 14.12509 110.11854 35865 ft 485 kts 217°
2026-05-07 06:05 14.07050 110.07759 35863 ft 485 kts 217°
2026-05-07 06:06 14.01591 110.03666 35864 ft 485 kts 217°
2026-05-07 06:06 13.96116 109.99601 35861 ft 485 kts 215°
2026-05-07 06:07 13.90453 109.95900 35866 ft 485 kts 213°
2026-05-07 06:07 13.84708 109.92255 35863 ft 485 kts 213°
2026-05-07 06:08 13.78968 109.88598 35863 ft 485 kts 213°
2026-05-07 06:08 13.74170 109.85522 35863 ft 485 kts 213°
2026-05-07 06:09 13.68478 109.81866 35860 ft 485 kts 213°
2026-05-07 06:09 13.62747 109.78185 35859 ft 485 kts 213°
2026-05-07 06:10 13.57018 109.74509 35860 ft 485 kts 213°
2026-05-07 06:10 13.51290 109.70837 35860 ft 485 kts 213°
2026-05-07 06:11 13.45560 109.67166 35860 ft 485 kts 213°
2026-05-07 06:11 13.39868 109.63521 35864 ft 485 kts 213°
2026-05-07 06:12 13.34137 109.59854 35864 ft 485 kts 213°
2026-05-07 06:12 13.28394 109.56181 35864 ft 485 kts 213°
2026-05-07 06:13 13.22662 109.52516 35861 ft 485 kts 213°
2026-05-07 06:13 13.16968 109.48878 35865 ft 485 kts 213°
2026-05-07 06:14 13.11220 109.45208 35865 ft 485 kts 213°
2026-05-07 06:14 13.05483 109.41546 35870 ft 486 kts 213°
2026-05-07 06:15 12.99742 109.37885 35872 ft 486 kts 213°
2026-05-07 06:15 12.93998 109.34223 35872 ft 486 kts 213°
2026-05-07 06:16 12.88246 109.30558 35873 ft 487 kts 213°
2026-05-07 06:16 12.82525 109.26914 35877 ft 487 kts 213°
2026-05-07 06:17 12.76766 109.23249 35874 ft 486 kts 213°
2026-05-07 06:17 12.71018 109.19592 35880 ft 486 kts 213°
2026-05-07 06:18 12.65270 109.15937 35881 ft 486 kts 213°
2026-05-07 06:18 12.59521 109.12286 35882 ft 486 kts 213°
2026-05-07 06:19 12.53773 109.08638 35886 ft 486 kts 213°
2026-05-07 06:19 12.48058 109.05011 35881 ft 486 kts 213°
2026-05-07 06:20 12.42308 109.01364 35887 ft 486 kts 213°
2026-05-07 06:20 12.36555 108.97716 35894 ft 486 kts 213°
2026-05-07 06:21 12.30802 108.94070 35893 ft 486 kts 213°
2026-05-07 06:21 12.25044 108.90424 35903 ft 486 kts 213°
2026-05-07 06:22 12.19324 108.86804 35905 ft 486 kts 213°
2026-05-07 06:22 12.10684 108.81337 35902 ft 486 kts 213°
2026-05-07 06:23 12.04927 108.77698 35909 ft 486 kts 213°
2026-05-07 06:23 11.99178 108.74063 35911 ft 485 kts 213°
2026-05-07 06:24 11.93434 108.70436 35904 ft 485 kts 213°
2026-05-07 06:24 11.87692 108.66810 35905 ft 485 kts 213°
2026-05-07 06:25 11.81988 108.63211 35896 ft 485 kts 213°
2026-05-07 06:25 11.76245 108.59594 35893 ft 485 kts 213°
2026-05-07 06:26 11.70501 108.55978 35894 ft 485 kts 213°
2026-05-07 06:26 11.64761 108.52363 35889 ft 484 kts 213°
2026-05-07 06:27 11.59020 108.48752 35877 ft 484 kts 213°
2026-05-07 06:27 11.53280 108.45142 35875 ft 484 kts 213°
2026-05-07 06:28 11.47581 108.41557 35865 ft 485 kts 213°
2026-05-07 06:28 11.41839 108.37950 35858 ft 484 kts 213°
2026-05-07 06:29 11.36106 108.34351 35856 ft 484 kts 213°
2026-05-07 06:29 11.30372 108.30749 35852 ft 483 kts 213°
2026-05-07 06:30 11.24641 108.27153 35845 ft 483 kts 213°
2026-05-07 06:30 11.18908 108.23557 35841 ft 483 kts 213°
2026-05-07 06:31 11.13218 108.19990 35841 ft 483 kts 213°
2026-05-07 06:31 11.07494 108.16404 35839 ft 483 kts 213°
2026-05-07 06:32 11.01769 108.12817 35835 ft 482 kts 212°
2026-05-07 06:32 10.96055 108.09239 35831 ft 482 kts 212°
2026-05-07 06:33 10.90348 108.05631 35825 ft 482 kts 213°
2026-05-07 06:33 10.84735 108.01901 35828 ft 481 kts 214°
2026-05-07 06:34 10.79176 107.98178 35832 ft 481 kts 214°
2026-05-07 06:34 10.73573 107.94450 35827 ft 481 kts 214°
2026-05-07 06:35 10.67961 107.90732 35825 ft 481 kts 214°
2026-05-07 06:35 10.62350 107.87019 35829 ft 481 kts 214°
2026-05-07 06:36 10.56737 107.83302 35828 ft 481 kts 214°
2026-05-07 06:36 10.51124 107.79588 35829 ft 481 kts 214°
2026-05-07 06:37 10.45507 107.75872 35825 ft 482 kts 214°
2026-05-07 06:37 10.39890 107.72153 35826 ft 482 kts 214°
2026-05-07 06:38 10.34279 107.68431 35824 ft 482 kts 214°
2026-05-07 06:38 10.28660 107.64708 35825 ft 482 kts 214°
2026-05-07 06:39 10.23039 107.60985 35825 ft 483 kts 214°
2026-05-07 06:39 10.17445 107.57280 35824 ft 483 kts 214°
2026-05-07 06:40 10.11805 107.53549 35823 ft 484 kts 214°
2026-05-07 06:40 10.06156 107.49824 35822 ft 484 kts 214°
2026-05-07 06:41 10.00505 107.46101 35822 ft 484 kts 214°
2026-05-07 06:41 9.94855 107.42377 35822 ft 484 kts 214°
2026-05-07 06:42 9.89200 107.38650 35823 ft 484 kts 214°
2026-05-07 06:42 9.83550 107.34929 35821 ft 484 kts 214°
2026-05-07 06:43 9.77941 107.31236 35823 ft 483 kts 214°
2026-05-07 06:43 9.72295 107.27520 35819 ft 483 kts 214°
2026-05-07 06:44 9.66654 107.23809 35817 ft 483 kts 213°
2026-05-07 06:44 9.61011 107.20099 35820 ft 483 kts 214°
2026-05-07 06:45 9.55366 107.16388 35819 ft 483 kts 213°
2026-05-07 06:45 9.49760 107.12704 35820 ft 483 kts 213°
2026-05-07 06:46 9.44113 107.08995 35818 ft 484 kts 213°
2026-05-07 06:46 9.38454 107.05280 35815 ft 484 kts 213°
2026-05-07 06:47 9.32796 107.01566 35815 ft 485 kts 213°
2026-05-07 06:47 9.27129 106.97848 35815 ft 485 kts 213°
2026-05-07 06:48 9.21464 106.94133 35817 ft 485 kts 213°
2026-05-07 06:48 9.15796 106.90418 35816 ft 485 kts 213°
2026-05-07 06:49 9.10163 106.86726 35812 ft 485 kts 213°
2026-05-07 06:49 9.04495 106.83014 35812 ft 485 kts 213°
2026-05-07 06:50 8.98820 106.79297 35815 ft 485 kts 213°
2026-05-07 06:50 8.93145 106.75583 35816 ft 486 kts 213°
2026-05-07 06:51 8.87476 106.71873 35816 ft 486 kts 213°
2026-05-07 06:51 8.81794 106.68156 35814 ft 486 kts 213°
2026-05-07 06:52 8.76122 106.64446 35815 ft 485 kts 213°
2026-05-07 06:52 8.70435 106.60768 35814 ft 485 kts 212°
2026-05-07 06:53 8.64675 106.57201 35812 ft 485 kts 211°
2026-05-07 06:53 8.58944 106.53678 35810 ft 485 kts 211°
2026-05-07 06:54 8.53192 106.50124 35812 ft 485 kts 211°
2026-05-07 06:54 8.47446 106.46562 35811 ft 484 kts 211°
2026-05-07 06:55 8.41701 106.42997 35808 ft 484 kts 211°
2026-05-07 06:55 8.35957 106.39436 35808 ft 484 kts 211°
2026-05-07 06:56 8.31183 106.36478 35806 ft 484 kts 211°
2026-05-07 06:56 8.24505 106.32341 35803 ft 484 kts 211°
2026-05-07 06:57 8.18759 106.28783 35803 ft 484 kts 211°
2026-05-07 06:57 8.13013 106.25226 35802 ft 484 kts 211°
2026-05-07 06:58 8.08231 106.22267 35806 ft 485 kts 211°
2026-05-07 06:58 8.02483 106.18711 35805 ft 485 kts 211°
2026-05-07 06:59 7.96730 106.15154 35804 ft 485 kts 211°
2026-05-07 06:59 7.90968 106.11592 35804 ft 485 kts 211°
2026-05-07 07:00 7.85211 106.08034 35802 ft 485 kts 211°
2026-05-07 07:00 7.79451 106.04475 35804 ft 486 kts 211°
2026-05-07 07:01 7.73679 106.00910 35802 ft 486 kts 211°
2026-05-07 07:01 7.67951 105.97374 35802 ft 486 kts 211°
2026-05-07 07:02 7.62176 105.93810 35800 ft 486 kts 211°
2026-05-07 07:02 7.56402 105.90247 35804 ft 487 kts 211°
2026-05-07 07:03 7.50618 105.86679 35803 ft 487 kts 211°
2026-05-07 07:03 7.44836 105.83114 35807 ft 487 kts 211°
2026-05-07 07:04 7.39045 105.79544 35808 ft 487 kts 211°
2026-05-07 07:04 7.33259 105.75979 35800 ft 487 kts 211°
2026-05-07 07:05 7.27473 105.72414 35804 ft 487 kts 211°
2026-05-07 07:05 7.21690 105.68852 35801 ft 487 kts 211°
2026-05-07 07:06 7.15935 105.65308 35801 ft 487 kts 211°
2026-05-07 07:06 7.10144 105.61744 35802 ft 488 kts 211°
2026-05-07 07:07 7.04346 105.58175 35802 ft 488 kts 211°
2026-05-07 07:07 6.98501 105.54682 35801 ft 488 kts 207°
2026-05-07 07:08 6.92446 105.51579 35806 ft 488 kts 206°
2026-05-07 07:08 6.86354 105.48530 35803 ft 489 kts 206°
2026-05-07 07:09 6.80299 105.45478 35802 ft 490 kts 206°
2026-05-07 07:09 6.74206 105.42385 35802 ft 490 kts 206°
2026-05-07 07:10 6.68123 105.39290 35803 ft 490 kts 206°
2026-05-07 07:10 6.62022 105.36187 35801 ft 490 kts 206°
2026-05-07 07:11 6.55926 105.33088 35796 ft 491 kts 206°
2026-05-07 07:11 6.49831 105.29992 35801 ft 491 kts 206°
2026-05-07 07:12 6.43769 105.26913 35802 ft 491 kts 206°
2026-05-07 07:12 6.37676 105.23820 35798 ft 491 kts 206°
2026-05-07 07:13 6.31581 105.20726 35802 ft 490 kts 206°
2026-05-07 07:13 6.25491 105.17635 35803 ft 490 kts 206°
2026-05-07 07:14 6.19409 105.14549 35800 ft 490 kts 206°
2026-05-07 07:14 6.13330 105.11466 35799 ft 489 kts 206°
2026-05-07 07:15 6.07251 105.08383 35800 ft 489 kts 206°
2026-05-07 07:15 6.01213 105.05322 35801 ft 489 kts 206°
2026-05-07 07:16 5.95136 105.02242 35799 ft 489 kts 206°
2026-05-07 07:16 5.89059 104.99163 35801 ft 489 kts 206°
2026-05-07 07:17 5.82979 104.96082 35800 ft 489 kts 206°
2026-05-07 07:17 5.76893 104.93000 35799 ft 489 kts 206°
2026-05-07 07:18 5.70814 104.89922 35800 ft 489 kts 206°
2026-05-07 07:18 5.64775 104.86865 35801 ft 489 kts 206°
2026-05-07 07:19 5.58699 104.83790 35801 ft 489 kts 206°
2026-05-07 07:19 5.52621 104.80715 35802 ft 489 kts 206°
2026-05-07 07:20 5.46549 104.77643 35799 ft 489 kts 206°
2026-05-07 07:20 5.40472 104.74569 35801 ft 489 kts 206°
2026-05-07 07:21 5.34397 104.71498 35797 ft 488 kts 206°
2026-05-07 07:21 5.28328 104.68429 35798 ft 488 kts 206°
2026-05-07 07:22 5.22255 104.65360 35802 ft 488 kts 206°
2026-05-07 07:22 5.16222 104.62311 35801 ft 488 kts 206°
2026-05-07 07:23 5.10157 104.59247 35801 ft 488 kts 206°
2026-05-07 07:23 5.04083 104.56178 35801 ft 488 kts 206°
2026-05-07 07:24 4.98019 104.53115 35799 ft 487 kts 205°
2026-05-07 07:24 4.92006 104.50080 35794 ft 486 kts 205°
2026-05-07 07:25 4.85583 104.48158 35812 ft 482 kts 185°
2026-05-07 07:25 4.82235 104.47991 35797 ft 482 kts 176°
2026-05-07 07:26 4.75601 104.48790 35802 ft 481 kts 171°
2026-05-07 07:26 4.68968 104.49727 35797 ft 482 kts 171°
2026-05-07 07:27 4.62314 104.50607 35798 ft 483 kts 172°
2026-05-07 07:27 4.55648 104.51450 35797 ft 483 kts 172°
2026-05-07 07:28 4.48972 104.52287 35796 ft 482 kts 172°
2026-05-07 07:28 4.42310 104.53125 35802 ft 482 kts 172°
2026-05-07 07:29 4.35665 104.53963 35799 ft 481 kts 172°
2026-05-07 07:29 4.29070 104.54795 35795 ft 480 kts 172°
2026-05-07 07:30 4.22443 104.55630 35793 ft 480 kts 172°
2026-05-07 07:30 4.15814 104.56466 35794 ft 479 kts 172°
2026-05-07 07:31 4.09192 104.57300 35798 ft 479 kts 172°
2026-05-07 07:31 4.02574 104.58134 35800 ft 479 kts 172°
2026-05-07 07:32 3.96011 104.58961 35798 ft 478 kts 172°
2026-05-07 07:32 3.89401 104.59794 35792 ft 478 kts 172°
2026-05-07 07:33 3.84963 104.60353 35799 ft 478 kts 172°
2026-05-07 08:26 3.78468 104.61139 35774 ft 477 kts 175°
2026-05-07 08:27 3.71860 104.61338 35795 ft 475 kts 179°
2026-05-07 08:27 3.65201 104.61415 35793 ft 481 kts 176°
2026-05-07 08:28 3.58520 104.61886 35772 ft 482 kts 174°
2026-05-07 08:28 3.51894 104.62548 35709 ft 475 kts 173°
2026-05-07 08:29 3.48605 104.62889 35531 ft 475 kts 173°
2026-05-07 08:29 3.45317 104.63225 35564 ft 476 kts 173°
2026-05-07 08:29 3.38673 104.63887 35569 ft 483 kts 173°
2026-05-07 08:30 3.32019 104.64539 35566 ft 484 kts 173°
2026-05-07 08:30 3.25315 104.65195 35566 ft 484 kts 173°
2026-05-07 08:31 3.18618 104.65852 35562 ft 484 kts 173°
2026-05-07 08:31 3.11918 104.66510 35561 ft 483 kts 173°
2026-05-07 08:32 3.05254 104.66343 35548 ft 485 kts 195°
2026-05-07 08:32 3.02147 104.65019 35563 ft 487 kts 209°
2026-05-07 08:32 2.99453 104.62967 35550 ft 488 kts 225°
2026-05-07 08:33 2.94861 104.57932 35568 ft 492 kts 226°
2026-05-07 08:33 2.90246 104.52848 35572 ft 495 kts 226°
2026-05-07 08:34 2.85570 104.47806 35572 ft 497 kts 225°
2026-05-07 08:34 2.81687 104.43657 35279 ft 484 kts 225°
2026-05-07 08:35 2.79385 104.41202 34617 ft 484 kts 225°
2026-05-07 08:35 2.77059 104.38721 33690 ft 491 kts 225°
2026-05-07 08:35 2.74720 104.36226 32869 ft 492 kts 225°
2026-05-07 08:35 2.72411 104.33762 32267 ft 489 kts 226°
2026-05-07 08:36 2.70068 104.31258 31808 ft 483 kts 226°
2026-05-07 08:36 2.67817 104.28851 31361 ft 476 kts 226°
2026-05-07 08:36 2.65560 104.26439 30882 ft 472 kts 226°
2026-05-07 08:36 2.63325 104.24051 30371 ft 468 kts 226°
2026-05-07 08:37 2.61103 104.21678 29859 ft 465 kts 226°
2026-05-07 08:37 2.58900 104.19325 29278 ft 462 kts 226°
2026-05-07 08:37 2.56715 104.16990 28818 ft 455 kts 226°
2026-05-07 08:37 2.54618 104.14750 28630 ft 428 kts 226°
2026-05-07 08:38 2.52601 104.12660 28251 ft 407 kts 219°
2026-05-07 08:38 2.50256 104.11186 27584 ft 393 kts 200°
2026-05-07 08:38 2.47687 104.10474 26820 ft 385 kts 185°
2026-05-07 08:38 2.45035 104.10361 25973 ft 381 kts 178°
2026-05-07 08:39 2.42392 104.10377 25170 ft 378 kts 177°
2026-05-07 08:39 2.39773 104.10415 24426 ft 375 kts 177°
2026-05-07 08:39 2.37177 104.10449 23731 ft 371 kts 177°
2026-05-07 08:39 2.34608 104.10472 22994 ft 367 kts 177°
2026-05-07 08:40 2.32082 104.10486 22151 ft 360 kts 177°
2026-05-07 08:40 2.29596 104.10493 21280 ft 355 kts 178°
2026-05-07 08:40 2.27136 104.10497 20415 ft 352 kts 178°
2026-05-07 08:40 2.24702 104.10498 19595 ft 347 kts 178°
2026-05-07 08:41 2.22297 104.10499 18815 ft 343 kts 178°
2026-05-07 08:41 2.19926 104.10499 18060 ft 339 kts 178°
2026-05-07 08:41 2.17582 104.10499 17204 ft 334 kts 178°
2026-05-07 08:41 2.15271 104.10499 16400 ft 330 kts 178°
2026-05-07 08:42 2.13018 104.10499 15618 ft 325 kts 178°
2026-05-07 08:42 2.10767 104.10499 14849 ft 321 kts 178°
2026-05-07 08:42 2.08545 104.10499 14114 ft 317 kts 178°
2026-05-07 08:42 2.06349 104.10499 13396 ft 313 kts 178°
2026-05-07 08:43 2.04214 104.10499 12915 ft 299 kts 178°
2026-05-07 08:43 2.02183 104.10498 12509 ft 285 kts 178°
2026-05-07 08:43 2.00239 104.10497 12078 ft 272 kts 178°
2026-05-07 08:43 1.98394 104.10498 11746 ft 259 kts 178°
2026-05-07 08:44 1.96597 104.10505 11449 ft 260 kts 178°
2026-05-07 08:44 1.94763 104.10515 11160 ft 266 kts 178°
2026-05-07 08:44 1.92919 104.10525 10822 ft 262 kts 178°
2026-05-07 08:44 1.91121 104.10533 10508 ft 257 kts 178°
2026-05-07 08:45 1.89322 104.10541 10212 ft 260 kts 178°
2026-05-07 08:45 1.87504 104.10550 9892 ft 260 kts 178°
2026-05-07 08:45 1.85725 104.10557 9576 ft 253 kts 178°
2026-05-07 08:45 1.83964 104.10565 9262 ft 254 kts 178°
2026-05-07 08:46 1.82186 104.10574 8961 ft 256 kts 178°
2026-05-07 08:46 1.80424 104.10583 8669 ft 250 kts 178°
2026-05-07 08:46 1.78683 104.10590 8372 ft 251 kts 178°
2026-05-07 08:46 1.76924 104.10598 8088 ft 252 kts 178°
2026-05-07 08:47 1.75194 104.10605 7769 ft 246 kts 178°
2026-05-07 08:47 1.73502 104.10613 7500 ft 250 kts 179°
2026-05-07 08:47 1.71732 104.10621 7227 ft 258 kts 179°
2026-05-07 08:47 1.69926 104.10629 6908 ft 260 kts 179°
2026-05-07 08:48 1.68120 104.10638 6643 ft 259 kts 179°
2026-05-07 08:48 1.66339 104.10646 6516 ft 251 kts 179°
2026-05-07 08:48 1.64653 104.10653 6380 ft 234 kts 179°
2026-05-07 08:48 1.63076 104.10658 6180 ft 220 kts 179°
2026-05-07 08:49 1.61582 104.10568 5837 ft 212 kts 198°
2026-05-07 08:49 1.60302 104.09856 5373 ft 211 kts 213°
2026-05-07 08:49 1.59092 104.09061 4938 ft 206 kts 212°
2026-05-07 08:49 1.57890 104.08286 4424 ft 205 kts 212°
2026-05-07 08:50 1.56693 104.07515 3904 ft 204 kts 212°
2026-05-07 08:50 1.55500 104.06745 3595 ft 203 kts 212°
2026-05-07 08:50 1.54314 104.06030 3318 ft 201 kts 206°
2026-05-07 08:50 1.53051 104.05441 3047 ft 200 kts 203°
2026-05-07 08:51 1.51780 104.04899 2852 ft 195 kts 202°
2026-05-07 08:51 1.50514 104.04364 2682 ft 201 kts 202°
2026-05-07 08:51 1.49221 104.03815 2426 ft 202 kts 202°
2026-05-07 08:51 1.47957 104.03279 2137 ft 190 kts 202°
2026-05-07 08:52 1.46788 104.02783 1887 ft 175 kts 202°
2026-05-07 08:52 1.45720 104.02330 1666 ft 158 kts 202°
2026-05-07 08:52 1.44741 104.01914 1522 ft 152 kts 202°
2026-05-07 08:52 1.43764 104.01500 1300 ft 151 kts 202°
2026-05-07 08:53 1.42814 104.01097 1131 ft 147 kts 202°
2026-05-07 08:53 1.41870 104.00696 931 ft 146 kts 202°
2026-05-07 08:53 1.40943 104.00303 719 ft 144 kts 201°
2026-05-07 08:53 1.40036 103.99922 561 ft 143 kts 202°
2026-05-07 08:54 1.39106 103.99521 372 ft 146 kts 201°
2026-05-07 08:54 1.38193 103.99135 163 ft 142 kts 200°
2026-05-07 08:54 1.37293 103.98754 40 ft 138 kts 200°
2026-05-07 08:54 1.36484 103.98415 35 ft 110 kts 203°
2026-05-07 08:55 1.35928 103.98181 35 ft 63 kts 203°
2026-05-07 08:55 1.35715 103.98114 35 ft 21 kts 186°
2026-05-07 08:55 1.35573 103.98120 35 ft 19 kts 163°
2026-05-07 08:55 1.35533 103.98177 35 ft 3 kts 87°
2026-05-07 08:56 1.35545 103.98204 35 ft 6 kts 54°
2026-05-07 08:56 1.35601 103.98238 35 ft 13 kts 26°
2026-05-07 08:56 1.35688 103.98275 35 ft 10 kts 28°
2026-05-07 08:56 1.35701 103.98340 35 ft 11 kts 124°
2026-05-07 08:57 1.35635 103.98347 35 ft 4 kts 191°
2026-05-07 08:57 1.35606 103.98349 35 ft 5 kts 138°
2026-05-07 08:57 1.35582 103.98378 35 ft 6 kts 129°
2026-05-07 08:57 1.35558 103.98405 35 ft 2 kts 133°
2026-05-07 08:58 1.35555 103.98408 35 ft 0 kts 133°